Hourly Data Report for October 12, 2014

All times are specified in Local Standard Time (LST). Add 1 hour to adjust for Daylight Saving Time where and when it is observed.

KAMLOOPS A
BRITISH COLUMBIA

50°42'09.000" N
120°26'55.000" W
345.30 m
1163781
71887
YKA

Download Data

Hourly Data (October 2014)
Hourly Data Report for October 12, 2014
Temp Definition
°C
Dew Point Temp Definition
°C
Rel Hum Definition
%
Wind Dir Definition
10's deg

Wind Spd Definition
km/h
Visibility Definition
km
Stn Press Definition
kPa
Hmdx Definition


Wind Chill Definition


Weather Definition


TIME
00:00 Legend Double Dagger 7.7 3.6 75 36 2 64.4 97.61     LegendNANA
01:00 Legend Double Dagger 8.6 3.1 68 36 6 64.4 97.68     Mainly Clear
02:00 Legend Double Dagger 7.1 4.3 82 26 5 64.4 97.68     LegendNANA
03:00 Legend Double Dagger 6.5 3.5 81 26 6 64.4 97.78     LegendNANA
04:00 Legend Double Dagger 6.9 3.4 78 9 4 64.4 97.85     Mostly Cloudy
05:00 Legend Double Dagger 7.8 3.9 76 36 2 64.4 97.88     LegendNANA
06:00 Legend Double Dagger 6.1 3.3 82 36 1 64.4 97.96     LegendNANA
07:00 Legend Double Dagger 6.1 3.3 82 12 3 64.4 97.99     Mainly Clear
08:00 Legend Double Dagger 8.7 5.3 79 36 3 64.4 98.01     LegendNANA
09:00 Legend Double Dagger 10.6 5.0 68 19 5 64.4 98.01     LegendNANA
10:00 Legend Double Dagger 12.1 4.6 60 17 5 64.4 97.95     Mostly Cloudy
11:00 Legend Double Dagger 13.9 4.8 54 7 3 64.4 97.87     LegendNANA
12:00 Legend Double Dagger 14.4 5.0 53 36 2 64.4 97.80     LegendNANA
13:00 Legend Double Dagger 15.4 5.1 50 36 3 64.4 97.75     Cloudy
14:00 Legend Double Dagger 14.6 6.8 59 27 10 64.4 97.72     LegendNANA
15:00 Legend Double Dagger 14.8 5.7 54 14 3 64.4 97.66     LegendNANA
16:00 Legend Double Dagger 16.5 2.6 39 23 22 64.4 97.66     Cloudy
17:00 Legend Double Dagger 14.9 3.2 45 24 18 64.4 97.69     LegendNANA
18:00 Legend Double Dagger 14.4 3.3 47 23 21 64.4 97.69     LegendNANA
19:00 Legend Double Dagger 13.5 3.9 52 20 8 64.4 97.67     Rain
20:00 Legend Double Dagger 12.6 4.6 58 8 11 64.4 97.69     LegendNANA
21:00 Legend Double Dagger 12.2 5.4 63 7 16 64.4 97.66     LegendNANA
22:00 Legend Double Dagger 12.2 5.4 63 9 16 64.4 97.59     Cloudy
23:00 Legend Double Dagger 11.9 5.6 65 10 19 64.4 97.61     LegendNANA

Notes on Data Quality.

Legend

  • E = Estimated
  • M = Missing
  • NA = Not Available
  • ‡ = Partner data that is not subject to review by the National Climate Archives
Date modified: